ORBCOMM-X 1 21576U 91050C 12035.92864888 +.00000214 +00000-0 +81877-4 0 08407 2 21576 098.6014 359.9975 0004474 041.3340 318.8182 14.40281241079118 ORBCOMM FM 1 1 23545U 95017A 12037.41949954 .00001570 00000-0 31837-3 0 280 2 23545 069.9693 008.3441 0011609 282.5554 077.4283 14.63098564894986 ORBCOMM FM 2 1 23546U 95017B 12036.86559821 .00001413 00000-0 29018-3 0 845 2 23546 069.9765 012.4989 0013056 273.2211 086.7443 14.62727389894901 ORBCOMM FM 8 1 25112U 97084A 12037.50801071 .00000680 00000-0 28506-3 0 274 2 25112 045.0172 132.3824 0010931 221.3802 138.6219 14.35122520738729 ORBCOMM FM 10 1 25113U 97084B 12036.70724397 .00000819 00000-0 33340-3 0 7498 2 25113 045.0187 137.0537 0008168 197.5263 162.5303 14.35111633738603 ORBCOMM FM 11 1 25114U 97084C 12036.69933169 .00000545 00000-0 23822-3 0 6888 2 25114 045.0176 136.6658 0008084 197.8509 162.2033 14.35111762738604 ORBCOMM FM 12 1 25115U 97084D 12036.68244720 .00000331 00000-0 16405-3 0 6844 2 25115 045.0177 136.4944 0007647 199.7638 160.2911 14.35115726738607 ORBCOMM FM 9 1 25116U 97084E 12036.69113957 .00000469 00000-0 21209-3 0 8508 2 25116 045.0175 136.8904 0007394 188.4622 171.6104 14.35099231738605 ORBCOMM FM 5 1 25117U 97084F 12036.72481687 .00000720 00000-0 29898-3 0 7827 2 25117 045.0176 136.9597 0004661 214.3950 145.6606 14.35108898738601 ORBCOMM FM 6 1 25118U 97084G 12036.71685241 .00000924 00000-0 36970-3 0 6698 2 25118 045.0179 136.8675 0004155 220.0126 140.0423 14.35122966738606 ORBCOMM FM 7 1 25119U 97084H 12036.73290342 .00000945 00000-0 37714-3 0 9452 2 25119 045.0174 136.9841 0005576 204.9238 155.1364 14.35116926738601 ORBCOMM FM 3 1 25158U 98007B 12037.57657365 .00000442 00000-0 23574-3 0 6735 2 25158 107.9633 267.4744 0048516 063.5812 297.0287 14.26210147726968 ORBCOMM FM 4 1 25159U 98007C 12035.67689364 +.00000233 +00000-0 +14989-3 0 06715 2 25159 107.9613 263.4323 0044056 068.0365 292.5430 14.26242414726720 ORBCOMM FM 17 1 25413U 98046A 12037.35332063 .00000193 00000-0 13221-3 0 8084 2 25413 044.9964 086.2653 0001719 188.9296 171.1490 14.28154685704484 ORBCOMM FM 18 1 25414U 98046B 12036.55820228 .00000277 00000-0 16140-3 0 8346 2 25414 044.9966 084.8667 0001728 123.7794 236.3231 14.29621890704436 ORBCOMM FM 19 1 25415U 98046C 12036.56753624 .00000489 00000-0 24337-3 0 8761 2 25415 044.9965 085.0391 0000767 083.9791 276.1136 14.29631645704434 ORBCOMM FM 20 1 25416U 98046D 12037.06693766 .00000701 00000-0 32517-3 0 3051 2 25416 044.9969 082.8965 0003408 250.5783 109.4689 14.29621102704460 ORBCOMM FM 16 1 25417U 98046E 12036.58827495 .00000670 00000-0 31345-3 0 9167 2 25417 044.9996 086.2747 0002431 187.2090 172.8730 14.29621338704438 ORBCOMM FM 15 1 25418U 98046F 12036.52891842 .00000590 00000-0 28251-3 0 9599 2 25418 045.0000 086.8087 0002618 164.6756 195.4176 14.29612043704422 ORBCOMM FM 14 1 25419U 98046G 12037.30686326 .00000515 00000-0 25337-3 0 9236 2 25419 044.9995 083.0703 0000743 219.1489 140.9335 14.29618876704538 ORBCOMM FM 13 1 25420U 98046H 12037.10709850 .00000344 00000-0 18725-3 0 8135 2 25420 045.0006 084.4217 0002246 154.1812 205.9161 14.29610970704534 ORBCOMM FM 21 1 25475U 98053A 12037.47369850 .00000363 00000-0 19418-3 0 7900 2 25475 045.0097 166.0819 0002282 069.6476 290.4631 14.29740728697767 ORBCOMM FM 22 1 25476U 98053B 12036.80881476 .00000688 00000-0 31939-3 0 4606 2 25476 045.0093 169.5706 0002364 115.4734 244.6344 14.29764002697656 ORBCOMM FM 23 1 25477U 98053C 12036.79176876 .00000421 00000-0 21650-3 0 7816 2 25477 045.0091 169.3107 0002208 104.7438 255.3663 14.29746366697822 ORBCOMM FM 24 1 25478U 98053D 12036.64262750 .00000074 00000-0 82371-4 0 3692 2 25478 045.0092 170.3265 0001670 151.3860 208.7050 14.29707589697781 ORBCOMM FM 25 1 25479U 98053E 12037.45571555 .00001028 00000-0 45075-3 0 6602 2 25479 045.0090 165.9432 0003718 107.2151 252.9283 14.29761394697899 ORBCOMM FM 26 1 25480U 98053F 12037.53303548 .00000094 00000-0 89898-4 0 7254 2 25480 045.0082 154.6241 0006382 129.5489 230.5923 14.29891420698029 ORBCOMM FM 27 1 25481U 98053G 12037.40300081 .00000309 00000-0 17351-3 0 2517 2 25481 045.0082 165.8476 0001152 154.5414 205.5483 14.29618023697882 ORBCOMM FM 28 1 25482U 98053H 12037.42751272 .00000614 00000-0 28549-3 0 3726 2 25482 045.0105 130.8666 0003793 132.2052 227.9119 14.30753385698334 ORBCOMM FM 30 1 25980U 99065A 12035.82502790 +.00000219 +00000-0 +13909-3 0 02986 2 25980 045.0353 340.7702 0005236 269.3826 090.6435 14.29585604634982 ORBCOMM FM 31 1 25981U 99065B 12036.78875108 .00000489 00000-0 24341-3 0 3947 2 25981 045.0267 333.2717 0004865 284.0322 075.9982 14.29593539635117 ORBCOMM FM 32 1 25982U 99065C 12036.80852524 .00000146 00000-0 11017-3 0 3359 2 25982 045.0236 330.2956 0006891 273.0681 086.9377 14.29795001635155 ORBCOMM FM 33 1 25983U 99065D 12036.89246654 .00000380 00000-0 19282-3 0 3857 2 25983 045.0342 331.5876 0007311 201.3931 158.6576 14.31780581635179 ORBCOMM FM 36 1 25984U 99065E 12035.79717538 +.00000710 +00000-0 +32891-3 0 03454 2 25984 045.0404 342.6580 0001787 169.7518 190.3353 14.29605155634976 ORBCOMM FM 35 1 25985U 99065F 12036.97139988 .00000163 00000-0 11707-3 0 3694 2 25985 045.0438 338.2358 0003739 289.6223 070.4188 14.29591033635145 ORBCOMM FM 34 1 25986U 99065G 12037.16708855 .00000210 00000-0 13548-3 0 3072 2 25986 045.0428 336.7286 0003767 254.6937 105.3461 14.29582192635174 ORBCOMM FM 38 1 33060U 08031A 12036.64257343 .00000359 00000-0 92470-4 0 1197 2 33060 048.4449 251.5306 0006913 159.5608 200.5578 14.69554504194972 ORBCOMM FM 41 1 33061U 08031B 12037.42586986 .00000346 00000-0 90396-4 0 1352 2 33061 048.4478 248.5244 0005867 151.8447 208.2779 14.69511096195096 ORBCOMM FM 29 1 33062U 08031C 12037.42463608 .00000442 00000-0 10715-3 0 1115 2 33062 048.4447 251.1135 0007773 154.3022 205.8268 14.69190678195058 ORBCOMM FM 39 1 33063U 08031D 12037.05304997 .00000459 00000-0 11070-3 0 1281 2 33063 048.4432 254.6147 0009591 146.2814 213.8704 14.68930639194975 ORBCOMM FM 37 1 33064U 08031E 12036.74552099 .00000286 00000-0 80958-4 0 1083 2 33064 048.4433 253.5471 0008078 156.3934 203.7357 14.69205154194968 ORBCOMM FM 40 1 33065U 08031F 12037.04833737 .00000620 00000-0 13755-3 0 978 2 33065 048.4462 254.9693 0008669 153.2160 206.9212 14.69011975194977